Mankato, MN

2:46 AM CDT on October 19, 2019 (GMT -0500)
Mankato Regional

Weather History for KMKT - May, 2019

Change the Weather History Date:

Monday, May 27, 2019

  Actual Average Record
Temperature  
Mean Temperature 57 °F -  
Max Temperature 64 °F 67 °F 97 °F (2018)
Min Temperature 48 °F 50 °F 42 °F (2007)
Degree Days  
Heating Degree Days 8    
Growing Degree Days 7 (Base 50)    
Moisture  
Dew Point 54 °F    
Average Humidity 91    
Maximum Humidity 100    
Minimum Humidity 63    
Precipitation  
Precipitation 1.26 in - - ()
Sea Level Pressure  
Sea Level Pressure 29.80 in    
Wind  
Wind Speed 14 mph (NE)    
Max Wind Speed 28 mph    
Max Gust Speed 33 mph    
Visibility 8 miles    
Events Rain    
Averages and records for this station are not official NWS values.
T = Trace of Precipitation, MM = Missing Value Source: NWS Daily Summary

Daily Weather History Graph

Daily Weather History Graph

Search for Another Location

Airport or City:

Astronomy

May. 27, 2019 Rise Set
Actual Time 5:38 AM CDT 8:47 PM CDT
Civil Twilight 5:03 AM CDT 9:23 PM CDT
Nautical Twilight 4:18 AM CDT 10:08 PM CDT
Astronomical Twilight 3:23 AM CDT 11:03 PM CDT
Moon 2:42 AM CDT (5/27) 1:43 PM CDT (5/27)
Length of Visible Light 16h 19m
Length of Day
15h 09m
Last Quarter, 40% of the Moon is Illuminated
May 27
Last Quarter
Jun 3
New
Jun 10
First Quarter
Jun 17
Full
Jun 25
Last Quarter

Hourly Weather History & Observations

Time (CDT) Temp. Dew Point Humidity Pressure Visibility Wind Dir Wind Speed Gust Speed Precip Events Conditions
12:56 AM 64.0 °F 51.1 °F 63% 29.99 in 10.0 mi East 9.2 mph - N/A   Clear
1:56 AM 63.0 °F 51.1 °F 65% 29.98 in 10.0 mi East 8.1 mph - N/A   Scattered Clouds
2:56 AM 63.0 °F 52.0 °F 67% 29.94 in 10.0 mi East 6.9 mph - N/A   Scattered Clouds
3:56 AM 61.0 °F 53.1 °F 75% 29.94 in 6.0 mi ESE 6.9 mph - 0.03 in Rain Rain
4:56 AM 59.0 °F 55.9 °F 90% 29.90 in 10.0 mi East 9.2 mph - 0.14 in Rain Light Rain
5:56 AM 59.0 °F 55.9 °F 90% 29.89 in 10.0 mi East 8.1 mph - 0.03 in Rain Light Rain
6:56 AM 59.0 °F 55.9 °F 90% 29.88 in 9.0 mi East 5.8 mph - 0.06 in Rain Light Rain
7:56 AM 57.9 °F 57.0 °F 97% 29.86 in 4.0 mi East 11.5 mph - 0.08 in Rain Heavy Rain
8:18 AM 57.2 °F 57.2 °F 100% 29.85 in 3.0 mi ENE 12.7 mph - 0.05 in Rain Heavy Rain
8:26 AM 57.2 °F 57.2 °F 100% 29.84 in 4.0 mi ENE 13.8 mph - 0.08 in Rain Rain
8:45 AM 57.2 °F 57.2 °F 100% 29.82 in 6.0 mi ENE 13.8 mph - 0.12 in Rain Light Rain
8:56 AM 57.9 °F 57.0 °F 97% 29.81 in 10.0 mi ENE 15.0 mph 21.9 mph 0.13 in Rain Light Rain
9:10 AM 57.2 °F 57.2 °F 100% 29.80 in 5.0 mi ENE 17.3 mph 23.0 mph 0.03 in Rain Rain
9:24 AM 57.2 °F 57.2 °F 100% 29.78 in 6.0 mi ENE 15.0 mph - 0.06 in Rain Rain
9:39 AM 57.2 °F 57.2 °F 100% 29.77 in 4.0 mi ENE 16.1 mph 23.0 mph 0.10 in Rain Heavy Rain
9:56 AM 57.0 °F 55.9 °F 96% 29.75 in 6.0 mi ENE 23.0 mph 31.1 mph 0.17 in Rain Rain
10:56 AM 57.0 °F 55.9 °F 96% 29.70 in 3.0 mi NE 23.0 mph 29.9 mph 0.20 in Rain Heavy Rain
11:56 AM 57.0 °F 55.9 °F 96% 29.70 in 4.0 mi ENE 17.3 mph 32.2 mph 0.15 in Rain Light Rain
12:56 PM 57.0 °F 55.9 °F 96% 29.67 in 10.0 mi NNE 19.6 mph 31.1 mph 0.14 in Rain Light Rain
1:56 PM 55.9 °F 55.0 °F 97% 29.65 in 6.0 mi NE 27.6 mph 33.4 mph 0.13 in Rain Light Rain
2:56 PM 55.9 °F 54.0 °F 93% 29.65 in 10.0 mi NNE 25.3 mph 32.2 mph 0.00 in Rain Light Rain
3:39 PM 55.4 °F 53.6 °F 94% 29.67 in 8.0 mi NNE 26.5 mph 32.2 mph 0.00 in Rain Light Rain
3:56 PM 55.0 °F 53.1 °F 93% 29.68 in 4.0 mi NNE 25.3 mph 29.9 mph 0.00 in Rain Light Rain
4:56 PM 55.0 °F 54.0 °F 96% 29.70 in 6.0 mi NNE 19.6 mph 29.9 mph 0.00 in Rain Light Rain
5:37 PM 55.4 °F 53.6 °F 94% 29.71 in 10.0 mi NNE 20.7 mph 26.5 mph 0.00 in   Overcast
5:56 PM 55.9 °F 53.1 °F 90% 29.72 in 10.0 mi NNE 18.4 mph 25.3 mph 0.00 in   Overcast
6:56 PM 55.9 °F 52.0 °F 87% 29.74 in 10.0 mi NE 17.3 mph 28.8 mph N/A   Overcast
7:34 PM 55.4 °F 51.8 °F 88% 29.75 in 10.0 mi NE 18.4 mph 23.0 mph N/A   Overcast
7:56 PM 55.9 °F 51.1 °F 84% 29.78 in 10.0 mi NNE 16.1 mph 21.9 mph N/A   Overcast
8:56 PM 55.9 °F 52.0 °F 87% 29.79 in 10.0 mi North 17.3 mph 27.6 mph N/A   Overcast
9:26 PM 53.6 °F 51.8 °F 94% 29.80 in 10.0 mi North 17.3 mph - N/A   Overcast
9:56 PM 53.1 °F 51.1 °F 93% 29.83 in 10.0 mi North 16.1 mph 23.0 mph N/A   Overcast
10:56 PM 50.0 °F 48.9 °F 96% 29.85 in 7.0 mi North 23.0 mph 28.8 mph 0.00 in Rain Light Rain
11:56 PM 48.9 °F 46.9 °F 93% 29.86 in 10.0 mi North 15.0 mph - 0.00 in   Overcast